Meteo orario Zagorskoe

Oggi, 7 Maggio, Venerdi

Tempo Temperatura Precipitazioni Vento Pressione Umidità
00:00 +2°C° 0 mm 3 m/s 738 mm Hg 86%
01:00 +2°C° 0 mm 3 m/s 738 mm Hg 86%
02:00 +2°C° 0 mm 3 m/s 738 mm Hg 86%
03:00 +2°C° 0 mm 3 m/s 738 mm Hg 88%
04:00 +1°C° 0 mm 3 m/s 738 mm Hg 91%
05:00 +1°C° 0 mm 3 m/s 738 mm Hg 94%
06:00 +3°C° 0 mm 3 m/s 738 mm Hg 88%
07:00 +4°C° 0 mm 3 m/s 738 mm Hg 83%
08:00 +7°C° 0 mm 3 m/s 738 mm Hg 77%
09:00 +6°C° 0.2 mm 4 m/s 738 mm Hg 79%
10:00 +6°C° 0.2 mm 4 m/s 738 mm Hg 80%
11:00 +7°C° 0.2 mm 4 m/s 738 mm Hg 82%
12:00 +6°C° 0.7 mm 4 m/s 737 mm Hg 84%
13:00 +7°C° 0.7 mm 3 m/s 737 mm Hg 87%
14:00 +7°C° 0.7 mm 2 m/s 737 mm Hg 90%
15:00 +7°C° 0.7 mm 3 m/s 736 mm Hg 91%
16:00 +7°C° 0.7 mm 3 m/s 736 mm Hg 93%
17:00 +5°C° 0.7 mm 3 m/s 735 mm Hg 94%
18:00 +5°C° 0.2 mm 3 m/s 736 mm Hg 95%
19:00 +6°C° 0.2 mm 2 m/s 736 mm Hg 96%
20:00 +6°C° 0.2 mm 2 m/s 736 mm Hg 97%
21:00 +6°C° 0.1 mm 2 m/s 736 mm Hg 97%
22:00 +5°C° 0.1 mm 2 m/s 735 mm Hg 97%
23:00 +5°C° 0.1 mm 2 m/s 735 mm Hg 97%

Domani, 8 Maggio, Sabato

Tempo Temperatura Precipitazioni Vento Pressione Umidità
00:00 +5°C° 0 mm 2 m/s 736 mm Hg 97%
01:00 +5°C° 0 mm 2 m/s 736 mm Hg 97%
02:00 +4°C° 0 mm 2 m/s 736 mm Hg 97%
03:00 +4°C° 0 mm 2 m/s 736 mm Hg 97%
04:00 +3°C° 0 mm 2 m/s 737 mm Hg 97%
05:00 +2°C° 0 mm 3 m/s 737 mm Hg 97%
06:00 +3°C° 0 mm 3 m/s 737 mm Hg 92%
07:00 +3°C° 0 mm 4 m/s 738 mm Hg 88%
08:00 +3°C° 0 mm 5 m/s 738 mm Hg 84%
09:00 +3°C° 0 mm 5 m/s 739 mm Hg 80%
10:00 +4°C° 0 mm 6 m/s 739 mm Hg 75%
11:00 +4°C° 0 mm 6 m/s 740 mm Hg 71%
12:00 +5°C° 0 mm 6 m/s 740 mm Hg 65%
13:00 +5°C° 0 mm 6 m/s 741 mm Hg 60%
14:00 +7°C° 0 mm 6 m/s 741 mm Hg 54%
15:00 +7°C° 0.1 mm 6 m/s 741 mm Hg 56%
16:00 +7°C° 0.1 mm 6 m/s 742 mm Hg 58%
17:00 +8°C° 0.1 mm 6 m/s 742 mm Hg 61%
18:00 +6°C° 0.1 mm 5 m/s 742 mm Hg 69%
19:00 +5°C° 0.1 mm 4 m/s 743 mm Hg 77%
20:00 +3°C° 0.1 mm 3 m/s 743 mm Hg 85%
21:00 +3°C° 0 mm 3 m/s 744 mm Hg 88%
22:00 +2°C° 0 mm 3 m/s 744 mm Hg 92%
23:00 +1°C° 0 mm 3 m/s 745 mm Hg 95%

Dopodomani, 9 Maggio, Domenica

Tempo Temperatura Precipitazioni Vento Pressione Umidità
00:00 +1°C° 0 mm 3 m/s 745 mm Hg 96%
01:00 +1°C° 0 mm 2 m/s 746 mm Hg 96%
02:00 +1°C° 0 mm 2 m/s 746 mm Hg 96%
03:00 +1°C° 0 mm 2 m/s 747 mm Hg 96%
04:00 +1°C° 0 mm 2 m/s 747 mm Hg 96%
05:00 +2°C° 0 mm 1 m/s 748 mm Hg 95%
06:00 +2°C° 0 mm 2 m/s 748 mm Hg 89%
07:00 +4°C° 0 mm 2 m/s 749 mm Hg 83%
08:00 +6°C° 0 mm 2 m/s 749 mm Hg 78%
09:00 +7°C° 0 mm 3 m/s 749 mm Hg 70%
10:00 +9°C° 0 mm 3 m/s 750 mm Hg 62%
11:00 +10°C° 0 mm 3 m/s 750 mm Hg 54%
12:00 +11°C° 0 mm 3 m/s 750 mm Hg 51%
13:00 +12°C° 0 mm 4 m/s 750 mm Hg 48%
14:00 +12°C° 0 mm 4 m/s 750 mm Hg 45%
15:00 +12°C° 0 mm 4 m/s 750 mm Hg 47%
16:00 +12°C° 0 mm 4 m/s 750 mm Hg 49%
17:00 +12°C° 0 mm 4 m/s 750 mm Hg 51%
18:00 +11°C° 0 mm 3 m/s 750 mm Hg 58%
19:00 +9°C° 0 mm 3 m/s 750 mm Hg 65%
20:00 +7°C° 0 mm 3 m/s 750 mm Hg 72%
21:00 +7°C° 0 mm 3 m/s 750 mm Hg 72%
22:00 +7°C° 0 mm 3 m/s 750 mm Hg 71%
23:00 +6°C° 0 mm 4 m/s 750 mm Hg 71%

10 Maggio, Lunedi

Tempo Temperatura Precipitazioni Vento Pressione Umidità
00:00 +5°C° 0 mm 4 m/s 751 mm Hg 72%
01:00 +5°C° 0 mm 4 m/s 751 mm Hg 73%
02:00 +5°C° 0 mm 4 m/s 751 mm Hg 74%
03:00 +4°C° 0 mm 3 m/s 751 mm Hg 75%
04:00 +4°C° 0 mm 3 m/s 751 mm Hg 77%
05:00 +4°C° 0 mm 3 m/s 751 mm Hg 78%
06:00 +6°C° 0 mm 4 m/s 752 mm Hg 74%
07:00 +8°C° 0 mm 4 m/s 752 mm Hg 69%
08:00 +10°C° 0 mm 5 m/s 752 mm Hg 64%
09:00 +13°C° 0 mm 5 m/s 752 mm Hg 60%
10:00 +14°C° 0 mm 5 m/s 752 mm Hg 57%
11:00 +15°C° 0 mm 6 m/s 752 mm Hg 53%
12:00 +16°C° 0 mm 6 m/s 752 mm Hg 52%
13:00 +17°C° 0 mm 6 m/s 752 mm Hg 51%
14:00 +17°C° 0 mm 6 m/s 752 mm Hg 50%
15:00 +17°C° 0 mm 5 m/s 752 mm Hg 53%
16:00 +17°C° 0 mm 5 m/s 752 mm Hg 56%
17:00 +17°C° 0 mm 5 m/s 751 mm Hg 59%
18:00 +15°C° 0 mm 4 m/s 751 mm Hg 64%
19:00 +13°C° 0 mm 4 m/s 751 mm Hg 70%
20:00 +11°C° 0 mm 3 m/s 752 mm Hg 76%
21:00 +11°C° 0 mm 4 m/s 752 mm Hg 75%
22:00 +10°C° 0 mm 4 m/s 752 mm Hg 74%
23:00 +10°C° 0 mm 4 m/s 752 mm Hg 74%

11 Maggio, Martedi

Tempo Temperatura Precipitazioni Vento Pressione Umidità
00:00 +10°C° 0 mm 4 m/s 752 mm Hg 75%
01:00 +8°C° 0 mm 4 m/s 752 mm Hg 76%
02:00 +7°C° 0 mm 5 m/s 752 mm Hg 77%
03:00 +7°C° 0 mm 4 m/s 752 mm Hg 77%
04:00 +7°C° 0 mm 4 m/s 752 mm Hg 77%
05:00 +7°C° 0 mm 4 m/s 752 mm Hg 77%
06:00 +8°C° 0 mm 5 m/s 752 mm Hg 72%
07:00 +10°C° 0 mm 5 m/s 752 mm Hg 68%
08:00 +11°C° 0 mm 6 m/s 752 mm Hg 63%
09:00 +14°C° 0 mm 6 m/s 752 mm Hg 58%
10:00 +15°C° 0 mm 6 m/s 752 mm Hg 53%
11:00 +16°C° 0 mm 6 m/s 752 mm Hg 48%
12:00 +17°C° 0 mm 6 m/s 752 mm Hg 48%
13:00 +19°C° 0 mm 6 m/s 752 mm Hg 48%
14:00 +19°C° 0 mm 6 m/s 751 mm Hg 47%
15:00 +19°C° 0 mm 6 m/s 751 mm Hg 51%
16:00 +19°C° 0 mm 6 m/s 751 mm Hg 54%
17:00 +19°C° 0 mm 5 m/s 750 mm Hg 57%
18:00 +16°C° 0 mm 5 m/s 750 mm Hg 63%
19:00 +14°C° 0 mm 4 m/s 750 mm Hg 70%
20:00 +13°C° 0 mm 4 m/s 750 mm Hg 76%
21:00 +12°C° 0 mm 4 m/s 750 mm Hg 76%
22:00 +11°C° 0 mm 4 m/s 750 mm Hg 77%
23:00 +11°C° 0 mm 4 m/s 750 mm Hg 77%

12 Maggio, Mercoledi

Tempo Temperatura Precipitazioni Vento Pressione Umidità
00:00 +10°C° 0 mm 4 m/s 750 mm Hg 79%
01:00 +10°C° 0 mm 4 m/s 750 mm Hg 82%
02:00 +8°C° 0 mm 4 m/s 750 mm Hg 84%
03:00 +9°C° 0 mm 3 m/s 749 mm Hg 86%
04:00 +8°C° 0 mm 3 m/s 749 mm Hg 88%
05:00 +8°C° 0 mm 3 m/s 749 mm Hg 90%
06:00 +10°C° 0 mm 4 m/s 749 mm Hg 83%
07:00 +10°C° 0 mm 5 m/s 749 mm Hg 76%
08:00 +13°C° 0 mm 5 m/s 749 mm Hg 70%
09:00 +15°C° 0 mm 6 m/s 749 mm Hg 66%
10:00 +16°C° 0 mm 6 m/s 749 mm Hg 63%
11:00 +17°C° 0 mm 6 m/s 748 mm Hg 60%
12:00 +19°C° 0 mm 6 m/s 748 mm Hg 59%
13:00 +20°C° 0 mm 6 m/s 748 mm Hg 58%
14:00 +21°C° 0 mm 6 m/s 747 mm Hg 57%
15:00 +21°C° 0 mm 5 m/s 747 mm Hg 58%
16:00 +21°C° 0 mm 5 m/s 747 mm Hg 60%
17:00 +21°C° 0 mm 5 m/s 746 mm Hg 62%
18:00 +19°C° 0 mm 4 m/s 746 mm Hg 68%
19:00 +17°C° 0 mm 4 m/s 746 mm Hg 74%
20:00 +14°C° 0 mm 4 m/s 746 mm Hg 80%
21:00 +13°C° 0 mm 4 m/s 746 mm Hg 81%
22:00 +12°C° 0 mm 3 m/s 746 mm Hg 82%
23:00 +11°C° 0 mm 3 m/s 746 mm Hg 83%
Mostrare altro

Abbiamo bisogno del tuo consenso

Meteoprog e i nostri fornitori di servizi possono memorizzare e accedere a dati personali come cookie, identificatori di dispositivi o altre tecnologie simili sul tuo dispositivo e possono elaborare tali dati per personalizzare i contenuti e gli annunci, nonché fornire funzionalità dei social media e analizzarne il traffico.

  • Archiviare e/o accedere alle informazioni sul tuo dispositivo

    Cookie, identificatori di dispositivi o altre informazioni possono essere memorizzati o resi accessibili sul tuo dispositivo per le finalità sopra indicate.

  • Annunci e contenuti personalizzati, misurazione di annunci e contenuti, approfondimenti sul pubblico e sviluppo di prodotti

    Gli annunci e i contenuti possono essere personalizzati in base a un profilo. È possibile aggiungere più dati per personalizzare meglio annunci e contenuti. È possibile misurare il rendimento degli annunci e dei contenuti. È possibile ricavare informazioni sul pubblico che ha visto gli annunci e i contenuti. Tali dati possono essere utilizzati per sviluppare o migliorare l'esperienza, i sistemi e il software dell'utente.

Cliccando su “Accetto”, acconsenti all'uso di cookie, identificatori di dispositivo, web beacon o altre tecnologie simili. Puoi modificare le impostazioni nel browser del tuo dispositivo.

Per determinati scopi, è possibile fare affidamento su interessi legali, piuttosto che sul consenso. Puoi approfondire questo argomento consultando la nostra Informativa sulla privacy e sui cookie.